Location: LDNL
(36.4545°S, 141.6685°E)
Time: 10:32:00
(UTC+10:00)

Explorer 7 - Pass Details

Date: 17 August 2022
Orbit: 482 x 668 km, 50.3° (Epoch: 26 September)

Event Time Altitude Azimuth Distance (km) Brightness Sun altitude
Rises 19:31:30 0° 244° (WSW) 3,019 11.7 -18.7°
Reaches altitude 10° 19:34:50 10° 221° (SW) 2,089 10.3 -19.3°
Maximum altitude 19:37:39 15° 186° (S) 1,741 9.4 -19.9°
Enters shadow 19:39:21 13° 162° (SSE) 1,853 9.3 -20.2°
Drops below altitude 10° 19:40:26 10° 149° (SSE) 2,040 - -20.5°
Sets 19:43:39 0° 126° (SE) 2,910 - -21.1°
